When you browse on this site, cookies collect data to enhance your experience and personalize the content and advertising you see.
Visit our Privacy Policy to learn more. By continuing to use the site, you agree to this use of cookies and data.
  • In Latvia
  • List of Countries
  • For 7 days
  • Water Temperature
  • Weather Map
  • Weather Widgets
  • user-avatar
    Login

    Hourly Weather Burgdorf

    Today, 23 September, Monday

    Time Temperature Precipitation Wind Pressure Humidity
    00:00 +14°C° 2.8 mm 2 mps 707 mmHg 94%
    01:00 +13°C° 0 mm 2 mps 707 mmHg 98%
    02:00 +13°C° 1.2 mm 2 mps 707 mmHg 97%
    03:00 +13°C° 1.2 mm 1 mps 707 mmHg 97%
    04:00 +13°C° 1.2 mm 1 mps 707 mmHg 96%
    05:00 +13°C° 0.3 mm 1 mps 707 mmHg 96%
    06:00 +13°C° 0.3 mm 1 mps 708 mmHg 96%
    07:00 +13°C° 0 mm 1 mps 708 mmHg 95%
    08:00 +13°C° 0.4 mm 1 mps 709 mmHg 93%
    09:00 +14°C° 0.4 mm 1 mps 709 mmHg 90%
    10:00 +15°C° 0.4 mm 1 mps 709 mmHg 88%
    11:00 +16°C° 0.2 mm 1 mps 709 mmHg 81%
    12:00 +18°C° 0.2 mm 1 mps 710 mmHg 74%
    13:00 +19°C° 0 mm 1 mps 710 mmHg 67%
    14:00 +19°C° 0.2 mm 1 mps 709 mmHg 67%
    15:00 +19°C° 0.2 mm 1 mps 709 mmHg 67%
    16:00 +19°C° 0.2 mm 1 mps 709 mmHg 67%
    17:00 +16°C° 0.1 mm 1 mps 709 mmHg 75%
    18:00 +14°C° 0.1 mm 1 mps 709 mmHg 84%
    19:00 +12°C° 0.1 mm 1 mps 709 mmHg 93%
    20:00 +12°C° 0 mm 1 mps 709 mmHg 93%
    21:00 +11°C° 0 mm 1 mps 709 mmHg 93%
    22:00 +10°C° 0 mm 0 mps 709 mmHg 94%
    23:00 +9°C° 0 mm 0 mps 709 mmHg 94%

    Tomorrow, 24 September, Tuesday

    Time Temperature Precipitation Wind Pressure Humidity
    00:00 +9°C° 0 mm 0 mps 709 mmHg 93%
    01:00 +9°C° 0 mm 0 mps 709 mmHg 93%
    02:00 +10°C° 0 mm 1 mps 709 mmHg 93%
    03:00 +9°C° 0 mm 1 mps 708 mmHg 93%
    04:00 +9°C° 0 mm 1 mps 708 mmHg 93%
    05:00 +9°C° 0 mm 1 mps 708 mmHg 92%
    06:00 +9°C° 0 mm 0 mps 707 mmHg 91%
    07:00 +9°C° 0 mm 0 mps 707 mmHg 90%
    08:00 +11°C° 0 mm 0 mps 707 mmHg 84%
    09:00 +13°C° 0 mm 0 mps 707 mmHg 78%
    10:00 +15°C° 0 mm 0 mps 707 mmHg 71%
    11:00 +15°C° 0.1 mm 0 mps 707 mmHg 73%
    12:00 +16°C° 0.1 mm 1 mps 706 mmHg 75%
    13:00 +16°C° 0.1 mm 1 mps 706 mmHg 76%
    14:00 +15°C° 0 mm 1 mps 706 mmHg 78%
    15:00 +15°C° 0 mm 2 mps 706 mmHg 80%
    16:00 +14°C° 0 mm 2 mps 706 mmHg 82%
    17:00 +14°C° 0.5 mm 2 mps 706 mmHg 86%
    18:00 +14°C° 0.5 mm 2 mps 706 mmHg 90%
    19:00 +13°C° 0.5 mm 2 mps 706 mmHg 94%
    20:00 +13°C° 0.2 mm 2 mps 706 mmHg 94%
    21:00 +12°C° 0.2 mm 2 mps 706 mmHg 94%
    22:00 +12°C° 0.2 mm 2 mps 706 mmHg 94%
    23:00 +12°C° 0.1 mm 2 mps 706 mmHg 94%

    Day after tomorrow, 25 September, Wednesday

    Time Temperature Precipitation Wind Pressure Humidity
    00:00 +12°C° 0.1 mm 2 mps 706 mmHg 94%
    01:00 +12°C° 0.1 mm 2 mps 705 mmHg 95%
    02:00 +12°C° 0.1 mm 1 mps 705 mmHg 95%
    03:00 +12°C° 0.1 mm 1 mps 705 mmHg 95%
    04:00 +12°C° 0.1 mm 1 mps 705 mmHg 95%
    05:00 +12°C° 0.2 mm 2 mps 705 mmHg 95%
    06:00 +12°C° 0.2 mm 2 mps 705 mmHg 95%
    07:00 +12°C° 0.2 mm 2 mps 705 mmHg 95%
    08:00 +13°C° 0.2 mm 2 mps 705 mmHg 90%
    09:00 +13°C° 0.2 mm 3 mps 706 mmHg 86%
    10:00 +14°C° 0.2 mm 3 mps 706 mmHg 82%
    11:00 +14°C° 0.3 mm 4 mps 706 mmHg 79%
    12:00 +15°C° 0.3 mm 4 mps 706 mmHg 75%
    13:00 +15°C° 0.3 mm 4 mps 706 mmHg 72%
    14:00 +15°C° 0.3 mm 4 mps 706 mmHg 72%
    15:00 +15°C° 0.3 mm 4 mps 706 mmHg 72%
    16:00 +16°C° 0.3 mm 3 mps 705 mmHg 72%
    17:00 +14°C° 0.1 mm 3 mps 706 mmHg 75%
    18:00 +14°C° 0.1 mm 2 mps 706 mmHg 79%
    19:00 +13°C° 0.1 mm 2 mps 706 mmHg 83%
    20:00 +12°C° 0 mm 2 mps 706 mmHg 85%
    21:00 +12°C° 0 mm 2 mps 707 mmHg 87%
    22:00 +10°C° 0 mm 2 mps 707 mmHg 89%
    23:00 +10°C° 0.1 mm 2 mps 707 mmHg 89%

    26 September, Thursday

    Time Temperature Precipitation Wind Pressure Humidity
    00:00 +12°C° 0.1 mm 2 mps 707 mmHg 90%
    01:00 +12°C° 0.1 mm 2 mps 707 mmHg 90%
    02:00 +12°C° 0.5 mm 2 mps 707 mmHg 91%
    03:00 +12°C° 0.5 mm 2 mps 707 mmHg 92%
    04:00 +12°C° 0.5 mm 2 mps 707 mmHg 93%
    05:00 +12°C° 0.3 mm 2 mps 708 mmHg 94%
    06:00 +12°C° 0.3 mm 2 mps 708 mmHg 94%
    07:00 +12°C° 0.3 mm 2 mps 708 mmHg 95%
    08:00 +12°C° 0.2 mm 2 mps 708 mmHg 94%
    09:00 +13°C° 0.2 mm 1 mps 709 mmHg 93%
    10:00 +13°C° 0.2 mm 1 mps 709 mmHg 93%
    11:00 +15°C° 0 mm 2 mps 709 mmHg 88%
    12:00 +16°C° 0 mm 2 mps 710 mmHg 83%
    13:00 +17°C° 0 mm 2 mps 710 mmHg 79%
    14:00 +17°C° 0 mm 2 mps 710 mmHg 77%
    15:00 +18°C° 0 mm 2 mps 710 mmHg 76%
    16:00 +19°C° 0 mm 1 mps 710 mmHg 75%
    17:00 +16°C° 0 mm 1 mps 710 mmHg 81%
    18:00 +15°C° 0 mm 1 mps 710 mmHg 87%
    19:00 +13°C° 0 mm 1 mps 710 mmHg 92%
    20:00 +13°C° 0 mm 1 mps 710 mmHg 93%
    21:00 +13°C° 0 mm 1 mps 710 mmHg 93%
    22:00 +12°C° 0 mm 1 mps 710 mmHg 93%
    23:00 +12°C° 0 mm 1 mps 710 mmHg 93%

    27 September, Friday

    Time Temperature Precipitation Wind Pressure Humidity
    00:00 +12°C° 0 mm 1 mps 710 mmHg 92%
    01:00 +12°C° 0 mm 1 mps 710 mmHg 91%
    02:00 +12°C° 0 mm 1 mps 710 mmHg 92%
    03:00 +12°C° 0 mm 1 mps 710 mmHg 92%
    04:00 +12°C° 0 mm 1 mps 710 mmHg 92%
    05:00 +12°C° 0 mm 1 mps 710 mmHg 91%
    06:00 +12°C° 0 mm 1 mps 710 mmHg 91%
    07:00 +12°C° 0 mm 1 mps 709 mmHg 90%
    08:00 +14°C° 0 mm 1 mps 710 mmHg 84%
    09:00 +16°C° 0 mm 1 mps 710 mmHg 79%
    10:00 +17°C° 0 mm 2 mps 710 mmHg 73%
    11:00 +19°C° 0 mm 2 mps 710 mmHg 68%
    12:00 +20°C° 0 mm 2 mps 710 mmHg 63%
    13:00 +21°C° 0 mm 3 mps 710 mmHg 57%
    14:00 +21°C° 0 mm 3 mps 710 mmHg 59%
    15:00 +20°C° 0 mm 2 mps 710 mmHg 60%
    16:00 +20°C° 0 mm 2 mps 710 mmHg 62%
    17:00 +19°C° 0 mm 1 mps 710 mmHg 71%
    18:00 +16°C° 0 mm 1 mps 710 mmHg 80%
    19:00 +13°C° 0 mm 0 mps 710 mmHg 89%
    20:00 +14°C° 0 mm 1 mps 710 mmHg 90%
    21:00 +13°C° 0 mm 1 mps 710 mmHg 90%
    22:00 +13°C° 0 mm 1 mps 710 mmHg 91%
    23:00 +13°C° 0 mm 1 mps 710 mmHg 90%

    28 September, Saturday

    Time Temperature Precipitation Wind Pressure Humidity
    00:00 +13°C° 0 mm 1 mps 710 mmHg 89%
    01:00 +13°C° 0 mm 1 mps 710 mmHg 89%
    02:00 +13°C° 0.1 mm 1 mps 710 mmHg 90%
    03:00 +13°C° 0.1 mm 1 mps 710 mmHg 91%
    04:00 +13°C° 0.1 mm 1 mps 710 mmHg 92%
    05:00 +13°C° 0 mm 1 mps 711 mmHg 91%
    06:00 +13°C° 0 mm 1 mps 711 mmHg 91%
    07:00 +13°C° 0 mm 1 mps 711 mmHg 90%
    08:00 +14°C° 0 mm 1 mps 711 mmHg 86%
    09:00 +15°C° 0 mm 1 mps 711 mmHg 83%
    10:00 +16°C° 0 mm 1 mps 711 mmHg 79%
    11:00 +18°C° 0 mm 1 mps 711 mmHg 75%
    12:00 +19°C° 0 mm 1 mps 711 mmHg 70%
    13:00 +19°C° 0 mm 2 mps 711 mmHg 66%
    14:00 +20°C° 0 mm 1 mps 711 mmHg 66%
    15:00 +20°C° 0 mm 1 mps 710 mmHg 66%
    16:00 +20°C° 0 mm 1 mps 710 mmHg 65%
    17:00 +18°C° 0 mm 1 mps 710 mmHg 74%
    18:00 +15°C° 0 mm 1 mps 709 mmHg 83%
    19:00 +13°C° 0 mm 1 mps 709 mmHg 91%
    20:00 +12°C° 0 mm 1 mps 709 mmHg 92%
    21:00 +12°C° 0 mm 1 mps 709 mmHg 92%
    22:00 +11°C° 0 mm 1 mps 709 mmHg 93%
    23:00 +11°C° 0 mm 1 mps 709 mmHg 92%
    Show more